owner,sensor,date,latitude,longitude,relative_humidity,qcFlag 
LUMCON,ioos:station:LUMCON:102:1,2014-12-01T12:45:00Z,29.1870,-90.6093,84.9,1111122 
LUMCON,ioos:station:LUMCON:102:1,2014-12-02T18:15:00Z,29.1870,-90.6093,75.8,1111122 
LUMCON,ioos:station:LUMCON:102:1,2014-12-05T11:45:00Z,29.1870,-90.6093,87.2,1111122 
LUMCON,ioos:station:LUMCON:102:1,2014-12-05T12:45:00Z,29.1870,-90.6093,87.2,1111122 
LUMCON,ioos:station:LUMCON:102:1,2014-12-05T13:45:00Z,29.1870,-90.6093,86.2,1111122 
LUMCON,ioos:station:LUMCON:102:1,2014-12-05T14:45:00Z,29.1870,-90.6093,87.1,1111122 
LUMCON,ioos:station:LUMCON:102:1,2014-12-05T15:45:00Z,29.1870,-90.6093,87.4,1111122 
LUMCON,ioos:station:LUMCON:102:1,2014-12-05T16:45:00Z,29.1870,-90.6093,88.7,1111122 
LUMCON,ioos:station:LUMCON:102:1,2014-12-05T17:45:00Z,29.1870,-90.6093,89.4,1111122 
LUMCON,ioos:station:LUMCON:102:1,2014-12-05T18:45:00Z,29.1870,-90.6093,90.1,1111122 
LUMCON,ioos:station:LUMCON:102:1,2014-12-05T19:45:00Z,29.1870,-90.6093,90.9,1111122 
LUMCON,ioos:station:LUMCON:102:1,2014-12-05T20:45:00Z,29.1870,-90.6093,90.7,1111122 
LUMCON,ioos:station:LUMCON:102:1,2014-12-05T21:45:00Z,29.1870,-90.6093,90.6,1111122 
LUMCON,ioos:station:LUMCON:102:1,2014-12-05T22:45:00Z,29.1870,-90.6093,90.4,1111122 
LUMCON,ioos:station:LUMCON:102:1,2014-12-05T23:45:00Z,29.1870,-90.6093,91.4,1111122 
LUMCON,ioos:station:LUMCON:102:1,2014-12-06T00:45:00Z,29.1870,-90.6093,92.2,1111122 
LUMCON,ioos:station:LUMCON:102:1,2014-12-06T02:45:00Z,29.1870,-90.6093,92.2,1111122 
LUMCON,ioos:station:LUMCON:102:1,2014-12-06T03:45:00Z,29.1870,-90.6093,92.5,1111122 
LUMCON,ioos:station:LUMCON:102:1,2014-12-06T04:45:00Z,29.1870,-90.6093,92.5,1111122 
LUMCON,ioos:station:LUMCON:102:1,2014-12-06T05:45:00Z,29.1870,-90.6093,92.5,1111122 
LUMCON,ioos:station:LUMCON:102:1,2014-12-06T06:45:00Z,29.1870,-90.6093,92.8,1111122 
LUMCON,ioos:station:LUMCON:102:1,2014-12-06T07:45:00Z,29.1870,-90.6093,92.9,1111122 
LUMCON,ioos:station:LUMCON:102:1,2014-12-06T08:45:00Z,29.1870,-90.6093,92.4,1111122 
LUMCON,ioos:station:LUMCON:102:1,2014-12-06T09:45:00Z,29.1870,-90.6093,88.2,1111122 
LUMCON,ioos:station:LUMCON:102:1,2014-12-06T10:45:00Z,29.1870,-90.6093,80.9,1111122 
LUMCON,ioos:station:LUMCON:102:1,2014-12-06T11:45:00Z,29.1870,-90.6093,85.7,1111122 
LUMCON,ioos:station:LUMCON:102:1,2014-12-06T12:45:00Z,29.1870,-90.6093,70.5,1111122 
LUMCON,ioos:station:LUMCON:102:1,2014-12-06T13:45:00Z,29.1870,-90.6093,71.9,1111122 
LUMCON,ioos:station:LUMCON:102:1,2014-12-06T14:45:00Z,29.1870,-90.6093,65.3,1111122 
LUMCON,ioos:station:LUMCON:102:1,2014-12-06T15:45:00Z,29.1870,-90.6093,71.7,1111122 
LUMCON,ioos:station:LUMCON:102:1,2014-12-06T16:45:00Z,29.1870,-90.6093,82.3,1111122 
LUMCON,ioos:station:LUMCON:102:1,2014-12-06T17:45:00Z,29.1870,-90.6093,73.5,1111122 
LUMCON,ioos:station:LUMCON:102:1,2014-12-06T18:45:00Z,29.1870,-90.6093,79.0,1111122 
LUMCON,ioos:station:LUMCON:102:1,2014-12-06T19:45:00Z,29.1870,-90.6093,82.6,1111122 
LUMCON,ioos:station:LUMCON:102:1,2014-12-06T20:45:00Z,29.1870,-90.6093,86.2,1111122 
LUMCON,ioos:station:LUMCON:102:1,2014-12-06T21:45:00Z,29.1870,-90.6093,77.5,1111122 
LUMCON,ioos:station:LUMCON:102:1,2014-12-06T22:45:00Z,29.1870,-90.6093,73.8,1111122 
LUMCON,ioos:station:LUMCON:102:1,2014-12-06T23:45:00Z,29.1870,-90.6093,76.2,1111122 
LUMCON,ioos:station:LUMCON:102:1,2014-12-07T00:45:00Z,29.1870,-90.6093,70.7,1111122 
LUMCON,ioos:station:LUMCON:102:1,2014-12-07T01:45:00Z,29.1870,-90.6093,76.3,1111122 
LUMCON,ioos:station:LUMCON:102:1,2014-12-07T02:45:00Z,29.1870,-90.6093,73.3,1111122 
LUMCON,ioos:station:LUMCON:102:1,2014-12-07T03:45:00Z,29.1870,-90.6093,73.1,1111122 
LUMCON,ioos:station:LUMCON:102:1,2014-12-07T04:45:00Z,29.1870,-90.6093,69.3,1111122 
LUMCON,ioos:station:LUMCON:102:1,2014-12-07T05:45:00Z,29.1870,-90.6093,76.1,1111122 
LUMCON,ioos:station:LUMCON:102:1,2014-12-07T06:45:00Z,29.1870,-90.6093,73.6,1111122 
LUMCON,ioos:station:LUMCON:102:1,2014-12-07T07:45:00Z,29.1870,-90.6093,71.5,1111122 
LUMCON,ioos:station:LUMCON:102:1,2014-12-07T08:45:00Z,29.1870,-90.6093,76.3,1111122 
LUMCON,ioos:station:LUMCON:102:1,2014-12-07T09:45:00Z,29.1870,-90.6093,77.4,1111122 
LUMCON,ioos:station:LUMCON:102:1,2014-12-07T10:45:00Z,29.1870,-90.6093,75.7,1111122 
LUMCON,ioos:station:LUMCON:102:1,2014-12-07T11:45:00Z,29.1870,-90.6093,71.8,1111122 
LUMCON,ioos:station:LUMCON:102:1,2014-12-07T12:45:00Z,29.1870,-90.6093,72.5,1111122 
LUMCON,ioos:station:LUMCON:102:1,2014-12-07T13:45:00Z,29.1870,-90.6093,70.8,1111122 
LUMCON,ioos:station:LUMCON:102:1,2014-12-07T14:45:00Z,29.1870,-90.6093,70.7,1111122 
LUMCON,ioos:station:LUMCON:102:1,2014-12-07T15:45:00Z,29.1870,-90.6093,72.4,1111122 
LUMCON,ioos:station:LUMCON:102:1,2014-12-07T16:45:00Z,29.1870,-90.6093,70.6,1111122 
LUMCON,ioos:station:LUMCON:102:1,2014-12-07T17:45:00Z,29.1870,-90.6093,70.9,1111122 
LUMCON,ioos:station:LUMCON:102:1,2014-12-07T18:45:00Z,29.1870,-90.6093,70.7,1111122 
LUMCON,ioos:station:LUMCON:102:1,2014-12-07T19:45:00Z,29.1870,-90.6093,74.2,1111122 
LUMCON,ioos:station:LUMCON:102:1,2014-12-07T20:45:00Z,29.1870,-90.6093,67.3,1111122 
LUMCON,ioos:station:LUMCON:102:1,2014-12-07T21:45:00Z,29.1870,-90.6093,68.5,1111122 
LUMCON,ioos:station:LUMCON:102:1,2014-12-07T22:45:00Z,29.1870,-90.6093,72.3,1111122 
LUMCON,ioos:station:LUMCON:102:1,2014-12-07T23:45:00Z,29.1870,-90.6093,76.6,1111122 
LUMCON,ioos:station:LUMCON:102:1,2014-12-08T00:45:00Z,29.1870,-90.6093,73.9,1111122 
LUMCON,ioos:station:LUMCON:102:1,2014-12-08T01:45:00Z,29.1870,-90.6093,75.7,1111122 
LUMCON,ioos:station:LUMCON:102:1,2014-12-08T02:45:00Z,29.1870,-90.6093,74.1,1111122 
LUMCON,ioos:station:LUMCON:102:1,2014-12-08T03:45:00Z,29.1870,-90.6093,78.3,1111122 
LUMCON,ioos:station:LUMCON:102:1,2014-12-08T04:45:00Z,29.1870,-90.6093,79.9,1111122 
LUMCON,ioos:station:LUMCON:102:1,2014-12-08T05:45:00Z,29.1870,-90.6093,76.5,1111122 
LUMCON,ioos:station:LUMCON:102:1,2014-12-08T06:45:00Z,29.1870,-90.6093,73.5,1111122 
LUMCON,ioos:station:LUMCON:102:1,2014-12-08T07:45:00Z,29.1870,-90.6093,80.5,1111122 
LUMCON,ioos:station:LUMCON:102:1,2014-12-08T08:45:00Z,29.1870,-90.6093,82.9,1111122 
LUMCON,ioos:station:LUMCON:102:1,2014-12-08T09:45:00Z,29.1870,-90.6093,81.1,1111122 
LUMCON,ioos:station:LUMCON:102:1,2014-12-08T10:45:00Z,29.1870,-90.6093,76.2,1111122 
LUMCON,ioos:station:LUMCON:102:1,2014-12-08T11:45:00Z,29.1870,-90.6093,74.9,1111122 
LUMCON,ioos:station:LUMCON:102:1,2014-12-08T12:45:00Z,29.1870,-90.6093,70.8,1111122 
LUMCON,ioos:station:LUMCON:102:1,2014-12-08T13:45:00Z,29.1870,-90.6093,64.3,1111122 
LUMCON,ioos:station:LUMCON:102:1,2014-12-08T14:45:00Z,29.1870,-90.6093,63.5,1111122 
LUMCON,ioos:station:LUMCON:102:1,2014-12-08T17:45:00Z,29.1870,-90.6093,60.6,1111122 
LUMCON,ioos:station:LUMCON:102:1,2014-12-08T18:45:00Z,29.1870,-90.6093,57.2,1111122 
LUMCON,ioos:station:LUMCON:102:1,2014-12-08T19:45:00Z,29.1870,-90.6093,56.5,1111122 
LUMCON,ioos:station:LUMCON:102:1,2014-12-08T20:45:00Z,29.1870,-90.6093,60.2,1111122 
LUMCON,ioos:station:LUMCON:102:1,2014-12-08T21:45:00Z,29.1870,-90.6093,62.6,1111122 
LUMCON,ioos:station:LUMCON:102:1,2014-12-08T22:45:00Z,29.1870,-90.6093,70.2,1111122 
LUMCON,ioos:station:LUMCON:102:1,2014-12-08T23:45:00Z,29.1870,-90.6093,67.3,1111122 
LUMCON,ioos:station:LUMCON:102:1,2014-12-09T00:45:00Z,29.1870,-90.6093,69.5,1111122 
LUMCON,ioos:station:LUMCON:102:1,2014-12-09T01:45:00Z,29.1870,-90.6093,68.9,1111122 
LUMCON,ioos:station:LUMCON:102:1,2014-12-09T02:45:00Z,29.1870,-90.6093,71.5,1111122 
LUMCON,ioos:station:LUMCON:102:1,2014-12-09T03:45:00Z,29.1870,-90.6093,71.4,1111122 
LUMCON,ioos:station:LUMCON:102:1,2014-12-09T04:45:00Z,29.1870,-90.6093,75.8,1111122 
LUMCON,ioos:station:LUMCON:102:1,2014-12-09T05:45:00Z,29.1870,-90.6093,74.2,1111122 
LUMCON,ioos:station:LUMCON:102:1,2014-12-09T06:45:00Z,29.1870,-90.6093,73.1,1111122 
LUMCON,ioos:station:LUMCON:102:1,2014-12-09T07:45:00Z,29.1870,-90.6093,71.5,1111122 
LUMCON,ioos:station:LUMCON:102:1,2014-12-09T08:45:00Z,29.1870,-90.6093,69.7,1111122 
LUMCON,ioos:station:LUMCON:102:1,2014-12-09T09:45:00Z,29.1870,-90.6093,66.5,1111122 
LUMCON,ioos:station:LUMCON:102:1,2014-12-09T10:45:00Z,29.1870,-90.6093,64.1,1111122 
LUMCON,ioos:station:LUMCON:102:1,2014-12-09T11:45:00Z,29.1870,-90.6093,67.2,1111122 
LUMCON,ioos:station:LUMCON:102:1,2014-12-09T12:45:00Z,29.1870,-90.6093,64.0,1111122 
LUMCON,ioos:station:LUMCON:102:1,2014-12-09T13:45:00Z,29.1870,-90.6093,58.0,1111122 
LUMCON,ioos:station:LUMCON:102:1,2014-12-09T14:45:00Z,29.1870,-90.6093,60.7,1111122 
LUMCON,ioos:station:LUMCON:102:1,2014-12-09T15:45:00Z,29.1870,-90.6093,54.7,1111122 
LUMCON,ioos:station:LUMCON:102:1,2014-12-09T16:45:00Z,29.1870,-90.6093,68.7,1111122 
LUMCON,ioos:station:LUMCON:102:1,2014-12-09T17:45:00Z,29.1870,-90.6093,66.4,1111122 
LUMCON,ioos:station:LUMCON:102:1,2014-12-10T14:45:00Z,29.1870,-90.6093,61.6,1111122 
LUMCON,ioos:station:LUMCON:102:1,2014-12-10T15:45:00Z,29.1870,-90.6093,58.2,1111122 
LUMCON,ioos:station:LUMCON:102:1,2014-12-10T16:45:00Z,29.1870,-90.6093,61.5,1111122 
LUMCON,ioos:station:LUMCON:102:1,2014-12-10T17:45:00Z,29.1870,-90.6093,59.7,1111122 
LUMCON,ioos:station:LUMCON:102:1,2014-12-10T18:45:00Z,29.1870,-90.6093,58.7,1111122 
LUMCON,ioos:station:LUMCON:102:1,2014-12-10T19:45:00Z,29.1870,-90.6093,59.4,1111122 
LUMCON,ioos:station:LUMCON:102:1,2014-12-10T20:45:00Z,29.1870,-90.6093,48.6,1111122 
LUMCON,ioos:station:LUMCON:102:1,2014-12-10T21:45:00Z,29.1870,-90.6093,55.5,1111122 
LUMCON,ioos:station:LUMCON:102:1,2014-12-10T22:45:00Z,29.1870,-90.6093,48.8,1111122 
LUMCON,ioos:station:LUMCON:102:1,2014-12-10T23:45:00Z,29.1870,-90.6093,54.6,1111122 
LUMCON,ioos:station:LUMCON:102:1,2014-12-11T00:45:00Z,29.1870,-90.6093,51.5,1111122 
LUMCON,ioos:station:LUMCON:102:1,2014-12-11T01:45:00Z,29.1870,-90.6093,50.6,1111122 
LUMCON,ioos:station:LUMCON:102:1,2014-12-11T03:45:00Z,29.1870,-90.6093,57.9,1111122 
LUMCON,ioos:station:LUMCON:102:1,2014-12-11T05:45:00Z,29.1870,-90.6093,58.9,1111122 
LUMCON,ioos:station:LUMCON:102:1,2014-12-11T06:45:00Z,29.1870,-90.6093,60.4,1111122 
LUMCON,ioos:station:LUMCON:102:1,2014-12-11T07:45:00Z,29.1870,-90.6093,61.4,1111122 
LUMCON,ioos:station:LUMCON:102:1,2014-12-11T08:45:00Z,29.1870,-90.6093,64.8,1111122 
LUMCON,ioos:station:LUMCON:102:1,2014-12-11T09:45:00Z,29.1870,-90.6093,65.7,1111122 
LUMCON,ioos:station:LUMCON:102:1,2014-12-11T10:45:00Z,29.1870,-90.6093,67.1,1111122 
LUMCON,ioos:station:LUMCON:102:1,2014-12-11T11:45:00Z,29.1870,-90.6093,60.1,1111122 
LUMCON,ioos:station:LUMCON:102:1,2014-12-11T12:45:00Z,29.1870,-90.6093,60.8,1111122 
LUMCON,ioos:station:LUMCON:102:1,2014-12-11T14:45:00Z,29.1870,-90.6093,55.0,1111122 
LUMCON,ioos:station:LUMCON:102:1,2014-12-11T15:45:00Z,29.1870,-90.6093,50.8,1111122 
LUMCON,ioos:station:LUMCON:102:1,2014-12-11T16:45:00Z,29.1870,-90.6093,50.5,1111122 
LUMCON,ioos:station:LUMCON:102:1,2014-12-11T17:45:00Z,29.1870,-90.6093,56.2,1111122 
LUMCON,ioos:station:LUMCON:102:1,2014-12-11T18:45:00Z,29.1870,-90.6093,54.6,1111122 
LUMCON,ioos:station:LUMCON:102:1,2014-12-11T19:45:00Z,29.1870,-90.6093,58.0,1111122 
LUMCON,ioos:station:LUMCON:102:1,2014-12-11T20:45:00Z,29.1870,-90.6093,58.6,1111122 
LUMCON,ioos:station:LUMCON:102:1,2014-12-11T21:45:00Z,29.1870,-90.6093,59.4,1111122 
LUMCON,ioos:station:LUMCON:102:1,2014-12-11T22:45:00Z,29.1870,-90.6093,56.9,1111122 
LUMCON,ioos:station:LUMCON:102:1,2014-12-11T23:45:00Z,29.1870,-90.6093,57.6,1111122 
LUMCON,ioos:station:LUMCON:102:1,2014-12-12T00:45:00Z,29.1870,-90.6093,58.0,1111122 
LUMCON,ioos:station:LUMCON:102:1,2014-12-12T01:45:00Z,29.1870,-90.6093,56.8,1111122 
LUMCON,ioos:station:LUMCON:102:1,2014-12-12T02:45:00Z,29.1870,-90.6093,58.7,1111122 
LUMCON,ioos:station:LUMCON:102:1,2014-12-12T03:45:00Z,29.1870,-90.6093,70.0,1111122 
LUMCON,ioos:station:LUMCON:102:1,2014-12-12T04:45:00Z,29.1870,-90.6093,64.4,1111122 
LUMCON,ioos:station:LUMCON:102:1,2014-12-12T06:45:00Z,29.1870,-90.6093,64.0,1111122 
LUMCON,ioos:station:LUMCON:102:1,2014-12-12T07:45:00Z,29.1870,-90.6093,70.1,1111122 
LUMCON,ioos:station:LUMCON:102:1,2014-12-12T08:45:00Z,29.1870,-90.6093,61.9,1111122 
LUMCON,ioos:station:LUMCON:102:1,2014-12-12T09:45:00Z,29.1870,-90.6093,62.7,1111122 
LUMCON,ioos:station:LUMCON:102:1,2014-12-12T10:45:00Z,29.1870,-90.6093,65.9,1111122 
LUMCON,ioos:station:LUMCON:102:1,2014-12-12T11:45:00Z,29.1870,-90.6093,68.1,1111122 
LUMCON,ioos:station:LUMCON:102:1,2014-12-12T12:45:00Z,29.1870,-90.6093,70.2,1111122 
LUMCON,ioos:station:LUMCON:102:1,2014-12-12T13:45:00Z,29.1870,-90.6093,61.0,1111122 
LUMCON,ioos:station:LUMCON:102:1,2014-12-12T14:45:00Z,29.1870,-90.6093,63.6,1111122 
LUMCON,ioos:station:LUMCON:102:1,2014-12-12T15:45:00Z,29.1870,-90.6093,68.4,1111122 
LUMCON,ioos:station:LUMCON:102:1,2014-12-12T16:45:00Z,29.1870,-90.6093,65.8,1111122 
LUMCON,ioos:station:LUMCON:102:1,2014-12-12T17:45:00Z,29.1870,-90.6093,69.9,1111122 
LUMCON,ioos:station:LUMCON:102:1,2014-12-12T18:45:00Z,29.1870,-90.6093,72.7,1111122 
LUMCON,ioos:station:LUMCON:102:1,2014-12-12T19:45:00Z,29.1870,-90.6093,69.7,1111122 
LUMCON,ioos:station:LUMCON:102:1,2014-12-12T20:45:00Z,29.1870,-90.6093,71.7,1111122 
LUMCON,ioos:station:LUMCON:102:1,2014-12-12T21:45:00Z,29.1870,-90.6093,69.2,1111122 
LUMCON,ioos:station:LUMCON:102:1,2014-12-12T22:45:00Z,29.1870,-90.6093,72.2,1111122 
LUMCON,ioos:station:LUMCON:102:1,2014-12-12T23:45:00Z,29.1870,-90.6093,69.8,1111122 
LUMCON,ioos:station:LUMCON:102:1,2014-12-13T00:45:00Z,29.1870,-90.6093,71.0,1111122 
LUMCON,ioos:station:LUMCON:102:1,2014-12-13T01:45:00Z,29.1870,-90.6093,67.5,1111122 
LUMCON,ioos:station:LUMCON:102:1,2014-12-13T02:45:00Z,29.1870,-90.6093,71.3,1111122 
LUMCON,ioos:station:LUMCON:102:1,2014-12-13T03:45:00Z,29.1870,-90.6093,69.2,1111122 
LUMCON,ioos:station:LUMCON:102:1,2014-12-13T04:45:00Z,29.1870,-90.6093,70.7,1111122 
LUMCON,ioos:station:LUMCON:102:1,2014-12-13T05:45:00Z,29.1870,-90.6093,74.5,1111122 
LUMCON,ioos:station:LUMCON:102:1,2014-12-13T06:45:00Z,29.1870,-90.6093,71.7,1111122 
LUMCON,ioos:station:LUMCON:102:1,2014-12-13T07:45:00Z,29.1870,-90.6093,73.8,1111122 
LUMCON,ioos:station:LUMCON:102:1,2014-12-13T08:45:00Z,29.1870,-90.6093,71.1,1111122 
LUMCON,ioos:station:LUMCON:102:1,2014-12-13T09:45:00Z,29.1870,-90.6093,66.1,1111122 
LUMCON,ioos:station:LUMCON:102:1,2014-12-13T10:45:00Z,29.1870,-90.6093,70.0,1111122 
LUMCON,ioos:station:LUMCON:102:1,2014-12-13T11:45:00Z,29.1870,-90.6093,67.5,1111122 
LUMCON,ioos:station:LUMCON:102:1,2014-12-13T12:45:00Z,29.1870,-90.6093,66.7,1111122 
LUMCON,ioos:station:LUMCON:102:1,2014-12-13T13:45:00Z,29.1870,-90.6093,68.9,1111122 
LUMCON,ioos:station:LUMCON:102:1,2014-12-13T14:45:00Z,29.1870,-90.6093,67.6,1111122 
LUMCON,ioos:station:LUMCON:102:1,2014-12-13T15:45:00Z,29.1870,-90.6093,68.4,1111122 
LUMCON,ioos:station:LUMCON:102:1,2014-12-13T16:45:00Z,29.1870,-90.6093,67.2,1111122 
LUMCON,ioos:station:LUMCON:102:1,2014-12-13T17:45:00Z,29.1870,-90.6093,72.0,1111122 
LUMCON,ioos:station:LUMCON:102:1,2014-12-13T18:45:00Z,29.1870,-90.6093,75.7,1111122 
LUMCON,ioos:station:LUMCON:102:1,2014-12-13T19:45:00Z,29.1870,-90.6093,76.8,1111122 
LUMCON,ioos:station:LUMCON:102:1,2014-12-13T20:45:00Z,29.1870,-90.6093,77.1,1111122 
LUMCON,ioos:station:LUMCON:102:1,2014-12-13T21:45:00Z,29.1870,-90.6093,79.1,1111122 
LUMCON,ioos:station:LUMCON:102:1,2014-12-13T22:45:00Z,29.1870,-90.6093,74.5,1111122 
LUMCON,ioos:station:LUMCON:102:1,2014-12-13T23:45:00Z,29.1870,-90.6093,76.2,1111122 
LUMCON,ioos:station:LUMCON:102:1,2014-12-14T00:45:00Z,29.1870,-90.6093,74.7,1111122 
LUMCON,ioos:station:LUMCON:102:1,2014-12-14T01:45:00Z,29.1870,-90.6093,73.4,1111122 
LUMCON,ioos:station:LUMCON:102:1,2014-12-14T02:45:00Z,29.1870,-90.6093,71.5,1111122 
LUMCON,ioos:station:LUMCON:102:1,2014-12-14T03:45:00Z,29.1870,-90.6093,69.1,1111122 
LUMCON,ioos:station:LUMCON:102:1,2014-12-14T04:45:00Z,29.1870,-90.6093,65.3,1111122 
LUMCON,ioos:station:LUMCON:102:1,2014-12-14T05:45:00Z,29.1870,-90.6093,71.9,1111122 
LUMCON,ioos:station:LUMCON:102:1,2014-12-14T06:45:00Z,29.1870,-90.6093,69.6,1111122 
LUMCON,ioos:station:LUMCON:102:1,2014-12-14T07:45:00Z,29.1870,-90.6093,74.9,1111122 
LUMCON,ioos:station:LUMCON:102:1,2014-12-14T08:45:00Z,29.1870,-90.6093,74.2,1111122 
LUMCON,ioos:station:LUMCON:102:1,2014-12-14T09:45:00Z,29.1870,-90.6093,75.0,1111122 
LUMCON,ioos:station:LUMCON:102:1,2014-12-14T10:45:00Z,29.1870,-90.6093,79.7,1111122 
LUMCON,ioos:station:LUMCON:102:1,2014-12-14T11:30:00Z,29.1870,-90.6093,78.8,1111122 
LUMCON,ioos:station:LUMCON:102:1,2014-12-14T12:45:00Z,29.1870,-90.6093,76.7,1111122 
LUMCON,ioos:station:LUMCON:102:1,2014-12-14T13:45:00Z,29.1870,-90.6093,76.4,1111122 
LUMCON,ioos:station:LUMCON:102:1,2014-12-14T14:45:00Z,29.1870,-90.6093,73.6,1111122 
LUMCON,ioos:station:LUMCON:102:1,2014-12-14T15:45:00Z,29.1870,-90.6093,72.1,1111122 
LUMCON,ioos:station:LUMCON:102:1,2014-12-14T16:45:00Z,29.1870,-90.6093,70.4,1111122 
LUMCON,ioos:station:LUMCON:102:1,2014-12-14T17:45:00Z,29.1870,-90.6093,73.4,1111122 
LUMCON,ioos:station:LUMCON:102:1,2014-12-14T18:45:00Z,29.1870,-90.6093,75.7,1111122 
LUMCON,ioos:station:LUMCON:102:1,2014-12-14T19:45:00Z,29.1870,-90.6093,76.7,1111122 
LUMCON,ioos:station:LUMCON:102:1,2014-12-14T20:45:00Z,29.1870,-90.6093,79.0,1111122 
LUMCON,ioos:station:LUMCON:102:1,2014-12-14T21:45:00Z,29.1870,-90.6093,81.0,1111122 
LUMCON,ioos:station:LUMCON:102:1,2014-12-14T22:45:00Z,29.1870,-90.6093,81.9,1111122 
LUMCON,ioos:station:LUMCON:102:1,2014-12-14T23:45:00Z,29.1870,-90.6093,82.7,1111122 
LUMCON,ioos:station:LUMCON:102:1,2014-12-15T00:45:00Z,29.1870,-90.6093,82.0,1111122 
LUMCON,ioos:station:LUMCON:102:1,2014-12-15T01:45:00Z,29.1870,-90.6093,83.5,1111122 
LUMCON,ioos:station:LUMCON:102:1,2014-12-15T02:45:00Z,29.1870,-90.6093,84.6,1111122 
LUMCON,ioos:station:LUMCON:102:1,2014-12-15T03:45:00Z,29.1870,-90.6093,85.3,1111122 
LUMCON,ioos:station:LUMCON:102:1,2014-12-15T04:45:00Z,29.1870,-90.6093,86.6,1111122 
LUMCON,ioos:station:LUMCON:102:1,2014-12-15T05:45:00Z,29.1870,-90.6093,86.9,1111122 
LUMCON,ioos:station:LUMCON:102:1,2014-12-15T06:45:00Z,29.1870,-90.6093,87.4,1111122 
LUMCON,ioos:station:LUMCON:102:1,2014-12-15T07:45:00Z,29.1870,-90.6093,88.4,1111122 
LUMCON,ioos:station:LUMCON:102:1,2014-12-15T08:45:00Z,29.1870,-90.6093,86.4,1111122 
LUMCON,ioos:station:LUMCON:102:1,2014-12-15T09:45:00Z,29.1870,-90.6093,86.7,1111122 
LUMCON,ioos:station:LUMCON:102:1,2014-12-15T10:45:00Z,29.1870,-90.6093,85.0,1111122 
LUMCON,ioos:station:LUMCON:102:1,2014-12-15T11:45:00Z,29.1870,-90.6093,85.2,1111122 
LUMCON,ioos:station:LUMCON:102:1,2014-12-15T12:45:00Z,29.1870,-90.6093,84.9,1111122 
LUMCON,ioos:station:LUMCON:102:1,2014-12-15T13:45:00Z,29.1870,-90.6093,83.9,1111122 
LUMCON,ioos:station:LUMCON:102:1,2014-12-15T14:45:00Z,29.1870,-90.6093,83.5,1111122 
LUMCON,ioos:station:LUMCON:102:1,2014-12-15T15:45:00Z,29.1870,-90.6093,85.3,1111122 
LUMCON,ioos:station:LUMCON:102:1,2014-12-15T16:45:00Z,29.1870,-90.6093,84.0,1111122 
LUMCON,ioos:station:LUMCON:102:1,2014-12-15T17:45:00Z,29.1870,-90.6093,83.7,1111122 
LUMCON,ioos:station:LUMCON:102:1,2014-12-15T18:45:00Z,29.1870,-90.6093,84.7,1111122 
LUMCON,ioos:station:LUMCON:102:1,2014-12-15T19:45:00Z,29.1870,-90.6093,87.6,1111122 
LUMCON,ioos:station:LUMCON:102:1,2014-12-15T20:45:00Z,29.1870,-90.6093,87.0,1111122 
LUMCON,ioos:station:LUMCON:102:1,2014-12-15T21:45:00Z,29.1870,-90.6093,87.7,1111122 
LUMCON,ioos:station:LUMCON:102:1,2014-12-15T22:45:00Z,29.1870,-90.6093,87.4,1111122 
LUMCON,ioos:station:LUMCON:102:1,2014-12-15T23:45:00Z,29.1870,-90.6093,87.7,1111122 
LUMCON,ioos:station:LUMCON:102:1,2014-12-16T01:45:00Z,29.1870,-90.6093,87.5,1111122 
LUMCON,ioos:station:LUMCON:102:1,2014-12-16T02:45:00Z,29.1870,-90.6093,86.7,1111122 
LUMCON,ioos:station:LUMCON:102:1,2014-12-16T03:45:00Z,29.1870,-90.6093,86.5,1111122 
LUMCON,ioos:station:LUMCON:102:1,2014-12-16T04:45:00Z,29.1870,-90.6093,84.0,1111122 
LUMCON,ioos:station:LUMCON:102:1,2014-12-16T05:45:00Z,29.1870,-90.6093,61.2,1111122 
LUMCON,ioos:station:LUMCON:102:1,2014-12-16T10:45:00Z,29.1870,-90.6093,41.2,1111122 
LUMCON,ioos:station:LUMCON:102:1,2014-12-16T11:45:00Z,29.1870,-90.6093,38.1,1111122 
LUMCON,ioos:station:LUMCON:102:1,2014-12-16T12:45:00Z,29.1870,-90.6093,37.7,1111122 
LUMCON,ioos:station:LUMCON:102:1,2014-12-16T13:45:00Z,29.1870,-90.6093,37.7,1111122 
LUMCON,ioos:station:LUMCON:102:1,2014-12-16T14:45:00Z,29.1870,-90.6093,34.9,1111122 
LUMCON,ioos:station:LUMCON:102:1,2014-12-16T15:45:00Z,29.1870,-90.6093,38.0,1111122 
LUMCON,ioos:station:LUMCON:102:1,2014-12-16T16:45:00Z,29.1870,-90.6093,53.4,1111122 
LUMCON,ioos:station:LUMCON:102:1,2014-12-16T17:45:00Z,29.1870,-90.6093,52.2,1111122 
LUMCON,ioos:station:LUMCON:102:1,2014-12-16T18:45:00Z,29.1870,-90.6093,59.9,1111122 
LUMCON,ioos:station:LUMCON:102:1,2014-12-16T19:45:00Z,29.1870,-90.6093,60.1,1111122 
LUMCON,ioos:station:LUMCON:102:1,2014-12-16T20:45:00Z,29.1870,-90.6093,66.1,1111122 
LUMCON,ioos:station:LUMCON:102:1,2014-12-16T21:45:00Z,29.1870,-90.6093,50.1,1111122 
LUMCON,ioos:station:LUMCON:102:1,2014-12-16T22:45:00Z,29.1870,-90.6093,50.7,1111122 
LUMCON,ioos:station:LUMCON:102:1,2014-12-16T23:45:00Z,29.1870,-90.6093,52.1,1111122 
LUMCON,ioos:station:LUMCON:102:1,2014-12-17T00:45:00Z,29.1870,-90.6093,57.3,1111122 
LUMCON,ioos:station:LUMCON:102:1,2014-12-17T01:45:00Z,29.1870,-90.6093,59.3,1111122 
LUMCON,ioos:station:LUMCON:102:1,2014-12-17T02:45:00Z,29.1870,-90.6093,67.2,1111122 
LUMCON,ioos:station:LUMCON:102:1,2014-12-17T03:45:00Z,29.1870,-90.6093,64.0,1111122 
LUMCON,ioos:station:LUMCON:102:1,2014-12-17T04:45:00Z,29.1870,-90.6093,58.7,1111122 
LUMCON,ioos:station:LUMCON:102:1,2014-12-17T05:45:00Z,29.1870,-90.6093,56.9,1111122 
LUMCON,ioos:station:LUMCON:102:1,2014-12-17T06:45:00Z,29.1870,-90.6093,63.1,1111122 
LUMCON,ioos:station:LUMCON:102:1,2014-12-17T07:45:00Z,29.1870,-90.6093,68.7,1111122 
LUMCON,ioos:station:LUMCON:102:1,2014-12-17T08:45:00Z,29.1870,-90.6093,72.0,1111122 
LUMCON,ioos:station:LUMCON:102:1,2014-12-17T09:45:00Z,29.1870,-90.6093,67.5,1111122 
LUMCON,ioos:station:LUMCON:102:1,2014-12-17T10:45:00Z,29.1870,-90.6093,68.1,1111122 
LUMCON,ioos:station:LUMCON:102:1,2014-12-17T11:45:00Z,29.1870,-90.6093,69.5,1111122 
LUMCON,ioos:station:LUMCON:102:1,2014-12-17T12:45:00Z,29.1870,-90.6093,67.2,1111122 
LUMCON,ioos:station:LUMCON:102:1,2014-12-17T13:45:00Z,29.1870,-90.6093,63.7,1111122 
LUMCON,ioos:station:LUMCON:102:1,2014-12-17T14:45:00Z,29.1870,-90.6093,62.1,1111122 
LUMCON,ioos:station:LUMCON:102:1,2014-12-17T15:45:00Z,29.1870,-90.6093,62.9,1111122 
LUMCON,ioos:station:LUMCON:102:1,2014-12-17T16:45:00Z,29.1870,-90.6093,57.4,1111122 
LUMCON,ioos:station:LUMCON:102:1,2014-12-17T17:45:00Z,29.1870,-90.6093,61.4,1111122 
LUMCON,ioos:station:LUMCON:102:1,2014-12-17T18:45:00Z,29.1870,-90.6093,60.9,1111122 
LUMCON,ioos:station:LUMCON:102:1,2014-12-17T19:45:00Z,29.1870,-90.6093,65.0,1111122 
LUMCON,ioos:station:LUMCON:102:1,2014-12-17T20:45:00Z,29.1870,-90.6093,63.8,1111122 
LUMCON,ioos:station:LUMCON:102:1,2014-12-17T21:45:00Z,29.1870,-90.6093,70.9,1111122 
LUMCON,ioos:station:LUMCON:102:1,2014-12-17T22:45:00Z,29.1870,-90.6093,76.0,1111122 
LUMCON,ioos:station:LUMCON:102:1,2014-12-17T23:45:00Z,29.1870,-90.6093,77.7,1111122 
LUMCON,ioos:station:LUMCON:102:1,2014-12-18T00:45:00Z,29.1870,-90.6093,77.7,1111122 
LUMCON,ioos:station:LUMCON:102:1,2014-12-18T01:45:00Z,29.1870,-90.6093,76.2,1111122 
LUMCON,ioos:station:LUMCON:102:1,2014-12-18T02:45:00Z,29.1870,-90.6093,81.0,1111122 
LUMCON,ioos:station:LUMCON:102:1,2014-12-18T03:45:00Z,29.1870,-90.6093,79.2,1111122 
LUMCON,ioos:station:LUMCON:102:1,2014-12-18T04:45:00Z,29.1870,-90.6093,78.2,1111122 
LUMCON,ioos:station:LUMCON:102:1,2014-12-18T05:45:00Z,29.1870,-90.6093,79.3,1111122 
LUMCON,ioos:station:LUMCON:102:1,2014-12-18T06:45:00Z,29.1870,-90.6093,78.6,1111122 
LUMCON,ioos:station:LUMCON:102:1,2014-12-18T07:45:00Z,29.1870,-90.6093,79.2,1111122 
LUMCON,ioos:station:LUMCON:102:1,2014-12-18T08:45:00Z,29.1870,-90.6093,78.2,1111122 
LUMCON,ioos:station:LUMCON:102:1,2014-12-18T09:45:00Z,29.1870,-90.6093,80.6,1111122 